Location: Bush Observatory
(40.2653°N, 94.3194°W)
Time: 09:55:49
(UTC-05:00)

Vanguard 1 - Visible Passes

Search period start: 06 May 2016 00:00
Search period end: 16 May 2016 00:00
Orbit: 650 x 3834 km, 34.2° (Epoch: 05 May)

Date Brightness Start Highest point End Pass type
(mag) Time Alt. Az. Time Alt. Az. Time Alt. Az.
06 May 10.2 03:35:46 35° SE 03:35:46 35° SE 03:39:36 10° ESE visible
07 May 9.7 03:55:41 42° S 03:55:41 42° S 04:00:43 10° ESE visible
08 May 9.7 04:15:37 37° SSW 04:16:31 41° S 04:21:46 10° ESE visible
09 May 10.0 04:35:37 26° SW 04:37:27 37° S 04:42:44 10° ESE visible
10 May 11.8 02:42:54 11° ESE 02:42:54 11° ESE 02:43:05 10° ESE visible
10 May 10.3 04:55:38 17° WSW 04:58:23 31° SSW 05:03:35 10° SE visible
11 May 11.3 03:02:59 16° ESE 03:02:59 16° ESE 03:04:04 10° ESE visible
11 May 10.7 05:15:44 11° WSW 05:19:19 25° SSW 05:24:11 10° SE visible
11 May 12.4 22:35:57 10° SSW 22:36:50 12° SSW 22:36:50 12° SSW visible
12 May 10.9 03:23:07 21° SE 03:23:07 21° SE 03:25:00 10° ESE visible
12 May 12.2 22:55:48 10° SSW 22:57:50 15° SSW 22:57:50 15° SSW visible
13 May 10.6 03:43:20 24° SSE 03:43:20 24° SSE 03:45:49 10° SE visible
13 May 12.1 20:58:08 10° S 21:02:01 12° SSE 21:05:14 10° SE visible
13 May 12.0 23:16:10 10° SW 23:18:49 18° SSW 23:18:49 18° SSW visible
14 May 10.5 04:03:38 23° S 04:03:38 23° S 04:06:28 10° SE visible
14 May 11.8 21:16:31 10° SSW 21:23:13 18° SSE 21:26:56 13° SE visible
14 May 11.9 23:36:54 10° SW 23:39:44 20° SW 23:39:44 20° SW visible
15 May 10.7 04:24:01 19° S 04:24:01 19° S 04:26:51 10° SSE visible
15 May 11.5 21:36:08 10° SSW 21:44:24 24° SSE 21:47:47 18° SE visible
